[[{"header":{"parameterUnit":"m.s-1","parameterCategory":1,"la1":30.2991,"la2":30.254,"lo1":-89.0895,"lo2":-89.0444,"dy":0.0017,"dx":0.0017,"nx":28,"ny":28,"refTime":"2024-02-02T03:00:00:Z","depth":0,"parameterNumber":2,"parameterNumberName":"U-component_of_WINDS"},"data":[0,0,0,0,0,0,0,0,0,0,0,0,0,0,0,0,0,0,0,0,0,0,0,0,0,0,0,0,0,0,0,0,0,0,0,0,0,0,0,0,0,0,0,0,0,0,0,0,0,0,0,0,0,0,0,0,0,0,-0.2758,-0.2758,0,-0.2762,-0.2762,-0.2762,-0.2747,-0.2747,-0.2746,-0.2746,-0.2752,-0.2753,-0.2753,0,0,0,0,0,0,0,0,0,0,0,0,0,-0.2742,-0.2742,-0.2758,-0.2758,-0.2758,-0.2762,-0.2762,-0.2762,-0.2747,-0.2747,-0.2746,-0.2746,-0.2752,-0.2753,-0.2753,0,0,0,0,0,0,0,0,0,0,0,0,0,-0.2747,-0.2742,-0.2758,-0.2751,-0.2751,-0.2762,-0.2762,-0.2762,-0.2748,-0.2747,-0.2746,-0.2746,-0.2752,-0.2753,-0.2753,-0.2772,0,0,-0.2756,-0.2756,0,0,0,0,0,0,0,0,-0.2747,-0.2748,-0.2752,-0.2752,-0.2751,-0.2753,-0.2758,-0.2765,-0.2748,-0.2749,-0.2746,-0.2745,-0.2753,-0.2754,-0.2756,-0.2772,-0.2772,-0.2756,-0.2757,-0.2757,-0.2757,0,0,0,0,0,0,0,-0.2747,-0.2748,-0.276,-0.2753,-0.2752,-0.2749,-0.2749,-0.2759,-0.2755,-0.2749,-0.2748,-0.2748,-0.2753,-0.2755,-0.2756,-0.2772,-0.2756,-0.2757,-0.2757,-0.2758,-0.2803,-0.2804,0,0,0,0,0,0,-0.2747,-0.2747,-0.276,-0.276,-0.2747,-0.275,-0.275,-0.2753,-0.2755,-0.2754,-0.2749,-0.2747,-0.2754,-0.2755,-0.2756,-0.2778,-0.2757,-0.2758,-0.2758,-0.2803,-0.2804,-0.2804,0,0,0,0,0,0,-0.2746,-0.2748,-0.2759,-0.2753,-0.2755,-0.2751,-0.2755,-0.2754,-0.2756,-0.2754,-0.2754,-0.2752,-0.2754,-0.2755,-0.2768,-0.2778,-0.2758,-0.2759,-0.2802,-0.2803,-0.2804,-0.2821,0,0,0,0,0,0,-0.2746,-0.2748,-0.2754,-0.2754,-0.2755,-0.277,-0.2755,-0.2754,-0.2757,-0.2756,-0.2757,-0.2757,-0.2753,-0.2767,-0.2769,-0.2779,-0.2759,-0.2801,-0.2802,-0.2804,-0.282,-0.2823,-0.2825,0,0,0,0,0,-0.2746,-0.2759,-0.2755,-0.2756,-0.2763,-0.2771,-0.2772,-0.2766,-0.2758,-0.2765,-0.2764,-0.2757,-0.2776,-0.2768,-0.277,-0.2781,-0.28,-0.2802,-0.2804,-0.2818,-0.2822,-0.2825,0,0,0,0,0,0,-0.2762,-0.2759,-0.2754,-0.2768,-0.277,-0.2768,-0.2777,-0.277,-0.2775,-0.2774,-0.2768,-0.2768,-0.2782,-0.2783,-0.2773,-0.2799,-0.2787,-0.2789,-0.2798,-0.2801,-0.2804,-0.2804,-0.276,0,0,0,0,0,-0.2767,-0.2774,-0.2771,-0.2783,-0.2784,-0.278,-0.2784,-0.2779,-0.2781,-0.2782,-0.2782,-0.2785,-0.2792,-0.2796,-0.2802,-0.282,-0.282,-0.2828,-0.2831,-0.2833,-0.2835,-0.2845,-0.2848,-0.281,-0.281,-0.281,0,0,-0.2779,-0.2778,-0.2782,-0.2787,-0.2788,-0.2795,-0.2781,-0.2789,-0.2795,-0.2784,-0.2796,-0.2796,-0.2799,-0.2814,-0.282,-0.2814,-0.2846,-0.2835,-0.2837,-0.2838,-0.2847,-0.285,-0.2854,-0.2811,-0.2811,-0.281,0,0,-0.2802,-0.2802,-0.2813,-0.2814,-0.2815,-0.2812,-0.2814,-0.2814,-0.2813,-0.2825,-0.2817,-0.2824,-0.2835,-0.2838,-0.2841,-0.2865,-0.2859,-0.2868,-0.2882,-0.2892,-0.2895,-0.2897,-0.2907,-0.291,-0.2869,-0.287,-0.287,0,-0.2816,-0.2826,-0.2819,-0.2828,-0.283,-0.282,-0.2831,-0.2832,-0.2836,-0.2838,-0.2832,-0.2846,-0.2847,-0.2863,-0.2869,-0.2871,-0.2875,-0.2868,-0.2895,-0.2897,-0.29,-0.2909,-0.2912,-0.2871,-0.287,-0.287,-0.287,0,-0.2843,-0.285,-0.2859,-0.2861,-0.2865,-0.2875,-0.287,-0.2875,-0.287,-0.2868,-0.2881,-0.2882,-0.2888,-0.2891,-0.2887,-0.2906,-0.2903,-0.2895,-0.2884,-0.2905,-0.2913,-0.2916,-0.2872,-0.2872,-0.2871,-0.2871,0,0,-0.2878,-0.2877,-0.288,-0.2881,-0.2882,-0.2887,-0.2897,-0.2902,-0.2906,-0.2909,-0.2918,-0.2928,-0.2921,-0.2924,-0.292,-0.2928,-0.2949,-0.292,-0.292,-0.2926,-0.2971,-0.2977,-0.2981,-0.2944,-0.2945,-0.2946,-0.2971,0,-0.2902,-0.2917,-0.2911,-0.2928,-0.2935,-0.2925,-0.2933,-0.2935,-0.2933,-0.294,-0.2938,-0.2946,-0.2936,-0.2938,-0.2945,-0.2945,-0.2958,-0.2943,-0.2953,-0.2954,-0.2953,-0.2985,-0.2991,-0.3015,-0.2974,-0.2974,-0.2975,0,-0.2932,-0.2935,-0.2952,-0.2951,-0.2954,-0.2961,-0.2966,-0.2971,-0.2973,-0.2972,-0.2975,-0.297,-0.298,-0.2968,-0.2983,-0.2973,-0.2977,-0.2977,-0.2978,-0.2979,-0.2966,-0.2988,-0.3022,-0.3026,-0.298,-0.2979,-0.2979,0,-0.2956,-0.2965,-0.2976,-0.2977,-0.2977,-0.2982,-0.2982,-0.2984,-0.2987,-0.2991,-0.2994,-0.3,-0.3003,-0.3008,-0.3004,-0.2996,-0.302,-0.3007,-0.3019,-0.302,-0.3025,-0.3025,-0.3062,-0.3027,-0.3027,-0.3027,-0.3027,0,-0.2983,-0.2994,-0.2987,-0.2994,-0.3006,-0.2999,-0.3012,-0.3011,-0.3012,-0.3019,-0.3011,-0.3018,-0.3013,-0.302,-0.3017,-0.303,-0.3032,-0.3031,-0.3031,-0.3032,-0.3033,-0.3035,-0.3034,-0.3028,-0.3028,-0.3028,-0.3027,0,-0.3013,-0.3008,-0.302,-0.3018,-0.3018,-0.3027,-0.3026,-0.3033,-0.3031,-0.304,-0.3042,-0.3039,-0.3047,-0.3043,-0.3052,-0.305,-0.3067,-0.3064,-0.3066,-0.3065,-0.3078,-0.3077,-0.3118,-0.3123,-0.3085,-0.3085,-0.3085,0,-0.3031,-0.3039,-0.3038,-0.3042,-0.3042,-0.3049,-0.3052,-0.3046,-0.305,-0.3053,-0.306,-0.3067,-0.3072,-0.3085,-0.3084,-0.3091,-0.3088,-0.3102,-0.3089,-0.3091,-0.3089,-0.3089,-0.309,-0.3105,-0.3105,-0.3106,-0.3106,0,-0.3064,-0.3061,-0.3066,-0.307,-0.3074,-0.3077,-0.3079,-0.3083,-0.3077,-0.3083,-0.309,-0.3094,-0.3102,-0.311,-0.3116,-0.3117,-0.3111,-0.311,-0.3113,-0.3115,-0.3116,-0.3117,-0.3074,-0.3109,-0.3109,-0.3109,-0.3108,-0.3108,-0.3088,-0.3095,-0.3095,-0.3101,-0.3102,-0.3105,-0.3111,-0.3109,-0.3115,-0.3121,-0.3117,-0.3126,-0.3128,-0.3135,-0.3137,-0.3145,-0.314,-0.3144,-0.3146,-0.3147,-0.3149,-0.3115,-0.3146,-0.3146,-0.3146,-0.3146,-0.3146,0,-0.3121,-0.3121,-0.3126,-0.3129,-0.3134,-0.3127,-0.3129,-0.3134,-0.3142,-0.3144,-0.3149,-0.3158,-0.3165,-0.3164,-0.3171,-0.3177,-0.3175,-0.3179,-0.3179,-0.318,-0.3153,-0.315,-0.3181,-0.3181,-0.3181,-0.3181,-0.3181,-0.3181,-0.3139,-0.315,-0.3147,-0.3159,-0.3159,-0.3167,-0.3169,-0.3171,-0.3173,-0.3183,-0.3188,-0.3188,-0.3189,-0.3196,-0.3202,-0.3202,-0.3205,-0.3211,-0.321,-0.3185,-0.3182,-0.3178,-0.3175,-0.3212,-0.3212,-0.3236,-0.3236,-0.3236]},{"header":{"parameterUnit":"m.s-1","parameterCategory":1,"la1":30.2991,"la2":30.254,"lo1":-89.0895,"lo2":-89.0444,"dy":0.0017,"dx":0.0017,"nx":28,"ny":28,"refTime":"2024-02-02T03:00:00:Z","depth":0,"parameterNumber":3,"parameterNumberName":"V-component_of_WINDS"},"data":[0,0,0,0,0,0,0,0,0,0,0,0,0,0,0,0,0,0,0,0,0,0,0,0,0,0,0,0,0,0,0,0,0,0,0,0,0,0,0,0,0,0,0,0,0,0,0,0,0,0,0,0,0,0,0,0,0,0,-0.2526,-0.2526,0,-0.2555,-0.2556,-0.2556,-0.2557,-0.2557,-0.2556,-0.2556,-0.2585,-0.2586,-0.2587,0,0,0,0,0,0,0,0,0,0,0,0,0,-0.2469,-0.247,-0.2526,-0.2526,-0.2527,-0.2555,-0.2556,-0.2556,-0.2557,-0.2557,-0.2556,-0.2556,-0.2584,-0.2585,-0.2587,0,0,0,0,0,0,0,0,0,0,0,0,0,-0.2496,-0.2471,-0.2526,-0.2531,-0.2531,-0.2555,-0.2556,-0.2556,-0.2557,-0.2557,-0.2556,-0.2556,-0.2584,-0.2585,-0.2587,-0.2607,0,0,-0.2592,-0.2593,0,0,0,0,0,0,0,0,-0.2494,-0.2498,-0.253,-0.253,-0.2531,-0.2552,-0.2546,-0.2573,-0.2557,-0.2547,-0.2556,-0.2556,-0.2574,-0.2576,-0.2583,-0.2609,-0.261,-0.2592,-0.2593,-0.2594,-0.2594,0,0,0,0,0,0,0,-0.2492,-0.2497,-0.2537,-0.253,-0.2531,-0.2531,-0.2534,-0.2551,-0.2563,-0.2548,-0.2548,-0.2552,-0.2574,-0.2581,-0.2584,-0.261,-0.2592,-0.2593,-0.2594,-0.2595,-0.2654,-0.2654,0,0,0,0,0,0,-0.249,-0.2495,-0.2537,-0.2538,-0.2511,-0.2532,-0.2536,-0.2546,-0.2563,-0.2565,-0.2552,-0.2552,-0.2579,-0.2582,-0.2585,-0.261,-0.2594,-0.2595,-0.2596,-0.2653,-0.2654,-0.2655,0,0,0,0,0,0,-0.2489,-0.2494,-0.2535,-0.2517,-0.2522,-0.2534,-0.2545,-0.2547,-0.2554,-0.2566,-0.2568,-0.2558,-0.2579,-0.2582,-0.2602,-0.2611,-0.2596,-0.2597,-0.2652,-0.2653,-0.2654,-0.266,0,0,0,0,0,0,-0.2487,-0.2493,-0.2501,-0.2517,-0.2523,-0.2552,-0.2546,-0.2548,-0.2557,-0.2556,-0.2572,-0.2574,-0.2579,-0.2599,-0.2603,-0.2613,-0.2599,-0.2652,-0.2653,-0.2654,-0.2659,-0.2661,-0.2662,0,0,0,0,0,-0.2485,-0.2501,-0.2502,-0.2507,-0.2534,-0.2553,-0.2556,-0.2562,-0.2558,-0.2566,-0.2574,-0.2573,-0.2609,-0.2601,-0.2606,-0.2616,-0.2651,-0.2653,-0.2654,-0.2658,-0.266,-0.2662,0,0,0,0,0,0,-0.2486,-0.2504,-0.2504,-0.2526,-0.2538,-0.2553,-0.2564,-0.2565,-0.2578,-0.2577,-0.2583,-0.2586,-0.2606,-0.2612,-0.2604,-0.2636,-0.2629,-0.2632,-0.2631,-0.2633,-0.2635,-0.2633,-0.26,0,0,0,0,0,-0.2489,-0.2503,-0.2518,-0.2536,-0.2542,-0.2552,-0.256,-0.2564,-0.2576,-0.2581,-0.259,-0.2602,-0.2616,-0.2625,-0.2639,-0.266,-0.2663,-0.2669,-0.2671,-0.2672,-0.2674,-0.2686,-0.2689,-0.2659,-0.2659,-0.2659,0,0,-0.2495,-0.2506,-0.2515,-0.2536,-0.2546,-0.2561,-0.2556,-0.2572,-0.2582,-0.2583,-0.2602,-0.261,-0.2623,-0.2643,-0.2653,-0.265,-0.2683,-0.2674,-0.2675,-0.2676,-0.2687,-0.269,-0.2693,-0.266,-0.266,-0.2659,0,0,-0.2513,-0.2523,-0.2539,-0.2549,-0.2564,-0.2571,-0.2574,-0.2589,-0.2594,-0.2614,-0.2615,-0.2627,-0.2651,-0.2661,-0.2669,-0.2691,-0.2691,-0.2695,-0.2704,-0.2716,-0.2718,-0.272,-0.2728,-0.2731,-0.2697,-0.2697,-0.2697,0,-0.2518,-0.2541,-0.2547,-0.2563,-0.2573,-0.2575,-0.2591,-0.26,-0.2618,-0.2624,-0.2621,-0.2651,-0.266,-0.2683,-0.2688,-0.2694,-0.2699,-0.2693,-0.2717,-0.2719,-0.2721,-0.2729,-0.2732,-0.2697,-0.2697,-0.2697,-0.2697,0,-0.2547,-0.2562,-0.2574,-0.2592,-0.2602,-0.2618,-0.2627,-0.2637,-0.2639,-0.2646,-0.2665,-0.2676,-0.2692,-0.2698,-0.27,-0.2721,-0.2719,-0.2716,-0.2709,-0.2725,-0.2732,-0.2735,-0.2698,-0.2698,-0.2697,-0.2697,0,0,-0.2566,-0.2588,-0.2592,-0.2601,-0.2618,-0.263,-0.2645,-0.2661,-0.267,-0.2682,-0.2695,-0.2716,-0.2713,-0.2722,-0.2726,-0.2736,-0.2753,-0.2732,-0.2733,-0.2736,-0.2776,-0.2778,-0.2782,-0.2753,-0.2753,-0.2754,-0.2775,0,-0.2587,-0.2616,-0.2622,-0.2647,-0.2661,-0.2664,-0.2677,-0.2689,-0.2695,-0.2708,-0.2715,-0.273,-0.2725,-0.2731,-0.2741,-0.2749,-0.2761,-0.2747,-0.2765,-0.2766,-0.2762,-0.2786,-0.2788,-0.2808,-0.2778,-0.2779,-0.2779,0,-0.2614,-0.2628,-0.2655,-0.267,-0.2676,-0.2688,-0.2704,-0.2716,-0.2729,-0.2733,-0.2743,-0.2746,-0.2762,-0.2754,-0.2776,-0.2767,-0.2774,-0.2779,-0.278,-0.2782,-0.2773,-0.2789,-0.2814,-0.2817,-0.2784,-0.2783,-0.2783,0,-0.2626,-0.2652,-0.2671,-0.2678,-0.2696,-0.2704,-0.2712,-0.2725,-0.2734,-0.2747,-0.2753,-0.2767,-0.2775,-0.2786,-0.2792,-0.2786,-0.2814,-0.2807,-0.2818,-0.2818,-0.2824,-0.2824,-0.2851,-0.2828,-0.2828,-0.2828,-0.2828,0,-0.2649,-0.2665,-0.2677,-0.2688,-0.2707,-0.2713,-0.2731,-0.2738,-0.2749,-0.2762,-0.2765,-0.2777,-0.2784,-0.2797,-0.2801,-0.2819,-0.2823,-0.2826,-0.2827,-0.2826,-0.2826,-0.2832,-0.283,-0.2829,-0.2829,-0.2829,-0.2828,0,-0.2665,-0.2674,-0.2695,-0.271,-0.2714,-0.2727,-0.274,-0.2751,-0.2758,-0.2774,-0.2779,-0.2789,-0.2804,-0.2811,-0.283,-0.2833,-0.2853,-0.2853,-0.2849,-0.285,-0.286,-0.2859,-0.2893,-0.2898,-0.2871,-0.2872,-0.2872,0,-0.2679,-0.2692,-0.2708,-0.2718,-0.2726,-0.274,-0.275,-0.2757,-0.2767,-0.2783,-0.2792,-0.2808,-0.2821,-0.2845,-0.2854,-0.2868,-0.2868,-0.2879,-0.2871,-0.2869,-0.2869,-0.2868,-0.287,-0.2881,-0.2881,-0.2881,-0.2881,0,-0.2703,-0.2706,-0.272,-0.2736,-0.2748,-0.2761,-0.2773,-0.278,-0.2789,-0.28,-0.2816,-0.2826,-0.2845,-0.2861,-0.2876,-0.2883,-0.2884,-0.2884,-0.2887,-0.2887,-0.2884,-0.2886,-0.2854,-0.2883,-0.2883,-0.2883,-0.2883,-0.2883,-0.2718,-0.273,-0.2744,-0.2759,-0.2769,-0.2781,-0.2793,-0.2801,-0.2815,-0.2832,-0.2835,-0.2852,-0.2864,-0.2884,-0.2892,-0.2905,-0.2903,-0.2907,-0.2909,-0.291,-0.2911,-0.2882,-0.2908,-0.2908,-0.2908,-0.2908,-0.2908,0,-0.2742,-0.2751,-0.2766,-0.2783,-0.2796,-0.2796,-0.2809,-0.282,-0.2835,-0.2847,-0.2859,-0.2878,-0.2893,-0.2903,-0.2918,-0.2926,-0.2927,-0.293,-0.293,-0.2931,-0.2912,-0.2908,-0.2929,-0.2929,-0.2929,-0.2929,-0.2929,-0.2929,-0.2756,-0.2776,-0.2781,-0.2805,-0.2814,-0.2832,-0.2839,-0.285,-0.2859,-0.288,-0.2893,-0.2899,-0.291,-0.2926,-0.294,-0.2942,-0.2948,-0.2951,-0.2954,-0.2935,-0.2933,-0.2931,-0.2927,-0.2952,-0.2952,-0.2972,-0.2972,-0.2972]}]]